#timestamp,LO_Frequency,Hit,StdDev 
1592049615.2,286046997.4,N
1592049635.1,286046996.8,N
1592049636.0,286046996.8,N
1592049655.8,286046994.6,N
1592049675.7,286046991.6,N
1592049695.5,286046988.5,Y
1592049715.3,286046992.8,P
1592049735.2,286046985.7,P
1592049755.0,286046983.3,P
1592049755.9,286046983.3,Y
1592049775.8,286046990.7,P
1592049795.6,286046988.8,P
1592049815.4,286046985.3,P
1592049835.3,286046984.3,Y
1592049855.1,286046994.0,P
1592049875.8,286046994.4,N
1592049895.7,286046993.9,N
1592049915.5,286046996.9,N
1592049935.4,286046999.7,N
1592049955.2,286047001.1,N
1592049975.0,286046999.8,N
1592049975.9,286046999.8,N
1592049995.8,286047007.3,N
1592050015.6,286047008.9,N
1592050035.4,286047006.9,N
1592050055.3,286047010.6,N
1592050075.1,286047010.7,N
1592050095.9,286047008.5,N
1592050115.7,286047008.4,N
1592050135.5,286047011.1,N
1592050155.4,286047015.6,N
1592050175.2,286047015.6,N
1592050195.1,286047013.0,N
1592050196.0,286047013.0,N
1592050215.8,286047013.2,N
1592050235.6,286047015.5,N
1592050255.5,286047014.1,N
1592050275.3,286047014.9,N
1592050295.1,286047014.7,N
1592050315.9,286047015.5,N
1592050335.7,286047014.2,N
1592050355.6,286047013.5,N
1592050375.4,286047009.7,N
1592050395.2,286047009.4,N
1592050415.1,286047007.7,N
1592050416.0,286047007.7,N
1592050435.8,286047010.3,N
1592050455.6,286047011.3,N
1592050475.5,286047009.9,N
1592050495.3,286047012.8,N
1592050515.2,286047013.1,Y
1592050535.9,286047005.5,P
1592050555.7,286047004.5,N
1592050575.6,286047004.8,N
1592050595.4,286047008.0,Y
1592050615.3,286047004.1,P
1592050635.1,286047005.6,P
1592050636.0,286047005.6,P
1592050655.8,286047007.6,Y
1592050675.7,286047004.0,P
1592050695.5,286047005.0,P
1592050715.3,286047006.7,P
1592050735.2,286047003.5,Y
1592050755.0,286046995.2,P
1592050755.9,286046995.2,N
1592050775.8,286046994.8,N
1592050795.6,286046995.9,N
1592050815.4,286046997.1,N
1592050835.3,286046995.6,N
1592050855.1,286046995.5,N
1592050875.9,286046993.8,N
1592050895.7,286046996.1,N
1592050915.5,286046994.0,N
1592050935.4,286046997.7,N
1592050955.2,286046990.3,Y
1592050975.0,286046991.2,P
1592050975.9,286046991.2,P
1592050995.8,286046989.9,P
1592051015.6,286046994.7,N
1592051035.5,286046996.4,N
1592051055.3,286046991.8,Y
1592051075.1,286046998.7,P
1592051095.9,286047000.9,N
1592051115.7,286047004.1,N
1592051135.5,286047005.4,N
1592051155.4,286047003.4,N
1592051175.2,286047004.5,N
1592051195.1,286047003.1,N
1592051196.0,286047003.1,N
1592051215.8,286047007.1,N
1592051235.6,286047006.3,N
1592051255.5,286047006.1,N
1592051275.3,286047008.5,N
1592051295.1,286047010.3,N
1592051315.9,286047006.6,N
1592051335.7,286047010.8,N
1592051355.6,286047010.4,N
1592051375.4,286047006.9,N
1592051395.2,286047005.3,N
1592051415.1,286047009.0,N
1592051416.0,286047009.0,N
1592051435.8,286047009.8,N
1592051455.6,286047007.9,N
1592051475.5,286047007.4,N
1592051495.3,286047007.0,N
1592051515.1,286047004.7,N
1592051535.9,286047004.8,N
1592051555.7,286047008.3,N
1592051575.6,286047010.2,N
1592051595.4,286047012.4,Y
1592051615.2,286047004.9,P
1592051635.1,286047007.4,P
1592051636.0,286047007.4,P
1592051655.8,286047007.0,Y
1592051675.7,286047001.6,P
1592051695.5,286047001.3,N
1592051715.3,286046998.3,N
1592051735.2,286046994.9,N
1592051755.0,286046992.7,N
1592051755.9,286046992.7,N
1592051775.7,286046991.3,N
1592051795.6,286046985.7,N
1592051815.4,286046984.5,N
1592051835.3,286046983.3,N
1592051855.1,286046979.7,N
1592051856.0,286046979.7,N
1592051875.8,286046981.6,N
1592051895.7,286046983.2,N
1592051915.5,286046978.9,N
1592051935.3,286046987.7,N
1592051955.2,286046988.1,N
1592051975.0,286046986.2,N
1592051975.9,286046986.2,N
1592051995.8,286046987.7,N
1592052015.6,286046984.3,N
1592052035.4,286046986.7,N
1592052055.3,286046988.2,N
1592052075.1,286046984.2,N
1592052095.9,286046988.0,N
1592052115.7,286046987.0,N
1592052135.6,286046989.5,N
1592052155.4,286046995.9,N
1592052175.2,286047002.6,N
1592052195.1,286047004.9,N
1592052196.0,286047004.9,N
1592052215.8,286047010.8,N
1592052235.7,286047006.5,N
1592052255.5,286047007.5,N
1592052275.3,286047003.9,N
1592052295.2,286047000.6,N
1592052315.0,286046999.6,N
1592052315.9,286046999.6,N
1592052335.7,286046999.4,N
1592052355.6,286047000.6,N
1592052375.4,286047002.6,N
1592052395.3,286047005.5,N
1592052415.1,286047004.7,N
1592052416.0,286047004.7,N
1592052435.8,286047006.8,N
1592052455.7,286047005.6,N
1592052475.5,286047003.3,N
1592052495.3,286047006.0,N
1592052515.2,286047005.8,N
1592052535.0,286047005.1,N
1592052535.9,286047005.1,N
1592052555.8,286047004.2,N
1592052575.6,286047004.4,N
1592052595.4,286047006.0,N
1592052615.3,286047008.7,N
1592052635.1,286047012.4,N
1592052655.9,286047013.7,Y
1592052675.7,286047011.0,P
1592052695.5,286047011.8,P
1592052715.4,286047009.2,N
1592052735.2,286047007.0,N
1592052755.0,286047006.0,N
1592052755.9,286047006.0,N
1592052775.8,286047006.0,N
1592052795.6,286047002.1,N
1592052815.5,286047002.8,N
1592052835.3,286046998.3,N
1592052855.1,286046997.1,N
1592052875.9,286046993.5,N
1592052895.7,286046994.0,N
1592052915.5,286046997.0,N
1592052935.4,286047003.7,N
1592052955.2,286047006.8,N
1592052975.1,286047008.2,N
1592052976.0,286047008.2,N
1592052995.8,286047005.0,N
1592053015.6,286047001.4,N
1592053035.5,286047002.0,N
1592053055.3,286047002.9,N
1592053075.1,286047007.3,N
1592053095.9,286047007.1,N
1592053115.7,286047003.4,N
1592053135.6,286047003.8,N
1592053155.4,286047001.4,N
1592053175.3,286047009.1,N
1592053195.1,286047008.9,N
1592053196.0,286047008.9,N
